Time,TemperatureF,DewpointF,PressureIn,WindDirection,WindDirectionDegrees,WindSpeedMPH,WindSpeedGustMPH,Humidity,HourlyPrecipIn,Conditions,Clouds,dailyrainin,SoftwareType,DateUTC
2014-01-13 00:04:00,38.2,34.7,29.59,WSW,237,1.0,3.0,87,0.00,,---,0.00,VWS V15.00,2014-01-13 06:04:00,
2014-01-13 00:09:00,38.1,34.3,29.58,SW,222,2.0,5.0,86,0.00,,---,0.00,VWS V15.00,2014-01-13 06:09:00,
2014-01-13 00:14:00,38.1,34.3,29.59,SW,217,1.0,5.0,86,0.00,,---,0.00,VWS V15.00,2014-01-13 06:14:00,
2014-01-13 00:19:00,38.1,34.3,29.59,SW,229,1.0,3.0,86,0.00,,---,0.00,VWS V15.00,2014-01-13 06:19:00,
2014-01-13 00:24:00,38.0,34.2,29.58,SW,223,1.0,3.0,86,0.00,,---,0.00,VWS V15.00,2014-01-13 06:24:00,
2014-01-13 00:29:00,37.9,34.4,29.58,SSW,212,2.0,3.0,87,0.00,,---,0.00,VWS V15.00,2014-01-13 06:29:00,
2014-01-13 00:34:00,37.8,34.3,29.58,SW,234,2.0,4.0,87,0.00,,---,0.00,VWS V15.00,2014-01-13 06:34:00,
2014-01-13 00:39:00,37.8,34.3,29.58,SSW,205,1.0,4.0,87,0.00,,---,0.00,VWS V15.00,2014-01-13 06:39:00,
2014-01-13 00:45:00,37.6,34.1,29.58,SW,227,1.0,4.0,87,0.00,,---,0.00,VWS V15.00,2014-01-13 06:45:00,
2014-01-13 00:50:00,37.6,34.1,29.59,SW,231,1.0,3.0,87,0.00,,---,0.00,VWS V15.00,2014-01-13 06:50:00,
2014-01-13 00:55:00,37.5,34.0,29.59,SW,229,2.0,3.0,87,0.00,,---,0.00,VWS V15.00,2014-01-13 06:55:00,
2014-01-13 01:00:00,37.3,33.8,29.58,SW,214,0.0,3.0,87,0.00,,---,0.00,VWS V15.00,2014-01-13 07:00:00,
2014-01-13 01:05:00,37.1,33.9,29.58,WSW,239,1.0,2.0,88,0.00,,---,0.00,VWS V15.00,2014-01-13 07:05:00,
2014-01-13 01:10:00,37.1,33.9,29.58,SW,222,1.0,2.0,88,0.00,,---,0.00,VWS V15.00,2014-01-13 07:10:00,
2014-01-13 01:15:00,37.0,33.8,29.58,SW,226,2.0,2.0,88,0.00,,---,0.00,VWS V15.00,2014-01-13 07:15:00,
2014-01-13 01:19:00,37.0,33.8,29.58,WSW,240,1.0,2.0,88,0.00,,---,0.00,VWS V15.00,2014-01-13 07:19:00,
2014-01-13 01:24:00,36.9,33.7,29.58,SW,234,0.0,2.0,88,0.00,,---,0.00,VWS V15.00,2014-01-13 07:24:00,
2014-01-13 01:29:00,36.9,33.7,29.58,WSW,248,1.0,2.0,88,0.00,,---,0.00,VWS V15.00,2014-01-13 07:29:00,
2014-01-13 01:34:00,36.9,33.7,29.59,SW,231,1.0,2.0,88,0.00,,---,0.00,VWS V15.00,2014-01-13 07:34:00,
2014-01-13 01:39:00,36.8,33.9,29.59,SW,234,0.0,2.0,89,0.00,,---,0.00,VWS V15.00,2014-01-13 07:39:00,
2014-01-13 01:44:00,36.6,33.7,29.59,SW,236,1.0,2.0,89,0.00,,---,0.00,VWS V15.00,2014-01-13 07:44:00,
2014-01-13 01:49:00,36.5,33.6,29.59,WSW,245,0.0,1.0,89,0.00,,---,0.00,VWS V15.00,2014-01-13 07:49:00,
2014-01-13 01:54:00,36.3,33.4,29.59,WSW,245,1.0,1.0,89,0.00,,---,0.00,VWS V15.00,2014-01-13 07:54:00,
2014-01-13 01:59:00,36.4,33.5,29.59,SW,229,0.0,1.0,89,0.00,,---,0.00,VWS V15.00,2014-01-13 07:59:00,
2014-01-13 02:04:00,36.4,33.5,29.59,WSW,255,0.0,1.0,89,0.00,,---,0.00,VWS V15.00,2014-01-13 08:04:00,
2014-01-13 02:09:00,36.3,33.4,29.60,WSW,255,0.0,1.0,89,0.00,,---,0.00,VWS V15.00,2014-01-13 08:09:00,
2014-01-13 02:14:00,36.3,33.7,29.60,WSW,254,0.0,1.0,90,0.00,,---,0.00,VWS V15.00,2014-01-13 08:14:00,
2014-01-13 02:19:00,35.9,33.0,29.59,WSW,254,0.0,0.0,89,0.00,,---,0.00,VWS V15.00,2014-01-13 08:19:00,
2014-01-13 02:24:00,35.5,32.9,29.59,WSW,254,0.0,0.0,90,0.00,,---,0.00,VWS V15.00,2014-01-13 08:24:00,
2014-01-13 02:29:00,35.3,32.9,29.59,WSW,254,0.0,0.0,91,0.00,,---,0.00,VWS V15.00,2014-01-13 08:29:00,
2014-01-13 02:34:00,35.1,32.5,29.60,WSW,255,0.0,0.0,90,0.00,,---,0.00,VWS V15.00,2014-01-13 08:34:00,
2014-01-13 02:40:00,34.9,32.5,29.60,WSW,255,0.0,0.0,91,0.00,,---,0.00,VWS V15.00,2014-01-13 08:40:00,
2014-01-13 02:45:00,34.7,32.3,29.60,WSW,255,0.0,0.0,91,0.00,,---,0.00,VWS V15.00,2014-01-13 08:45:00,
2014-01-13 02:49:00,34.5,32.4,29.59,WSW,255,0.0,0.0,92,0.00,,---,0.00,VWS V15.00,2014-01-13 08:49:00,
2014-01-13 02:54:00,34.5,32.4,29.59,WSW,255,0.0,0.0,92,0.00,,---,0.00,VWS V15.00,2014-01-13 08:54:00,
2014-01-13 02:59:00,34.3,32.2,29.59,WSW,240,0.0,0.0,92,0.00,,---,0.00,VWS V15.00,2014-01-13 08:59:00,
2014-01-13 03:05:00,34.1,32.0,29.58,WSW,240,0.0,0.0,92,0.00,,---,0.00,VWS V15.00,2014-01-13 09:05:00,
2014-01-13 03:09:00,34.0,32.2,29.58,WSW,240,0.0,0.0,93,0.00,,---,0.00,VWS V15.00,2014-01-13 09:09:00,
2014-01-13 03:15:00,34.1,32.3,29.58,SE,129,0.0,0.0,93,0.00,,---,0.00,VWS V15.00,2014-01-13 09:15:00,
2014-01-13 03:20:00,34.3,32.5,29.58,SE,129,0.0,1.0,93,0.00,,---,0.00,VWS V15.00,2014-01-13 09:20:00,
2014-01-13 03:25:00,34.2,32.4,29.58,SSW,207,0.0,1.0,93,0.00,,---,0.00,VWS V15.00,2014-01-13 09:25:00,
2014-01-13 03:30:00,34.3,32.5,29.58,SSW,207,0.0,1.0,93,0.00,,---,0.00,VWS V15.00,2014-01-13 09:30:00,
2014-01-13 03:35:00,34.4,32.6,29.58,SSW,207,0.0,0.0,93,0.00,,---,0.00,VWS V15.00,2014-01-13 09:35:00,
2014-01-13 03:39:00,34.5,32.7,29.58,SW,231,0.0,2.0,93,0.00,,---,0.00,VWS V15.00,2014-01-13 09:39:00,
2014-01-13 03:44:00,34.8,32.7,29.58,West,259,0.0,2.0,92,0.00,,---,0.00,VWS V15.00,2014-01-13 09:44:00,
2014-01-13 03:50:00,35.0,32.9,29.58,WSW,258,0.0,0.0,92,0.00,,---,0.00,VWS V15.00,2014-01-13 09:50:00,
2014-01-13 03:55:00,35.0,32.6,29.58,WNW,284,0.0,1.0,91,0.00,,---,0.00,VWS V15.00,2014-01-13 09:55:00,
2014-01-13 04:00:00,34.9,32.8,29.58,West,270,0.0,1.0,92,0.00,,---,0.00,VWS V15.00,2014-01-13 10:00:00,
2014-01-13 04:05:00,34.8,32.7,29.58,West,269,0.0,0.0,92,0.00,,---,0.00,VWS V15.00,2014-01-13 10:05:00,
2014-01-13 04:10:00,34.9,32.8,29.58,SW,218,0.0,1.0,92,0.00,,---,0.00,VWS V15.00,2014-01-13 10:10:00,
2014-01-13 04:14:00,34.9,32.5,29.58,SW,218,0.0,1.0,91,0.00,,---,0.00,VWS V15.00,2014-01-13 10:14:00,
2014-01-13 04:20:00,35.0,32.9,29.58,SW,218,0.0,1.0,92,0.00,,---,0.00,VWS V15.00,2014-01-13 10:20:00,
2014-01-13 04:25:00,35.1,32.7,29.58,SW,218,0.0,1.0,91,0.00,,---,0.00,VWS V15.00,2014-01-13 10:25:00,
2014-01-13 04:30:00,35.1,32.7,29.58,SW,218,0.0,1.0,91,0.00,,---,0.00,VWS V15.00,2014-01-13 10:30:00,
2014-01-13 04:34:00,34.8,32.5,29.58,SW,217,0.0,0.0,91,0.00,,---,0.00,VWS V15.00,2014-01-13 10:34:00,
2014-01-13 04:40:00,34.3,32.0,29.57,SW,217,0.0,1.0,91,0.00,,---,0.00,VWS V15.00,2014-01-13 10:40:00,
2014-01-13 04:44:00,34.0,31.9,29.57,SW,217,0.0,1.0,92,0.00,,---,0.00,VWS V15.00,2014-01-13 10:44:00,
2014-01-13 04:49:00,33.8,31.7,29.57,SW,217,0.0,0.0,92,0.00,,---,0.00,VWS V15.00,2014-01-13 10:49:00,
2014-01-13 04:54:00,33.8,32.0,29.57,SW,218,0.0,0.0,93,0.00,,---,0.00,VWS V15.00,2014-01-13 10:54:00,
2014-01-13 04:59:00,33.9,32.1,29.57,WSW,249,1.0,1.0,93,0.00,,---,0.00,VWS V15.00,2014-01-13 10:59:00,
2014-01-13 05:05:00,34.0,32.2,29.56,West,264,1.0,1.0,93,0.00,,---,0.00,VWS V15.00,2014-01-13 11:05:00,
2014-01-13 05:10:00,34.1,32.3,29.56,West,264,1.0,1.0,93,0.00,,---,0.00,VWS V15.00,2014-01-13 11:10:00,
2014-01-13 05:15:00,34.1,32.0,29.56,West,263,0.0,1.0,92,0.00,,---,0.00,VWS V15.00,2014-01-13 11:15:00,
2014-01-13 05:20:00,33.9,31.8,29.56,West,263,0.0,0.0,92,0.00,,---,0.00,VWS V15.00,2014-01-13 11:20:00,
2014-01-13 05:25:00,33.7,31.6,29.56,West,262,0.0,1.0,92,0.00,,---,0.00,VWS V15.00,2014-01-13 11:25:00,
2014-01-13 05:30:00,33.6,31.8,29.56,WSW,250,0.0,0.0,93,0.00,,---,0.00,VWS V15.00,2014-01-13 11:30:00,
2014-01-13 05:35:00,33.4,31.6,29.57,WSW,250,0.0,1.0,93,0.00,,---,0.00,VWS V15.00,2014-01-13 11:35:00,
2014-01-13 05:40:00,33.1,31.3,29.57,WSW,250,0.0,1.0,93,0.00,,---,0.00,VWS V15.00,2014-01-13 11:40:00,
2014-01-13 05:45:00,32.9,31.1,29.57,WSW,252,0.0,0.0,93,0.00,,---,0.00,VWS V15.00,2014-01-13 11:45:00,
2014-01-13 05:50:00,32.9,31.4,29.57,West,271,0.0,2.0,94,0.00,,---,0.00,VWS V15.00,2014-01-13 11:50:00,
2014-01-13 05:55:00,33.1,31.6,29.57,WSW,238,1.0,2.0,94,0.00,,---,0.00,VWS V15.00,2014-01-13 11:55:00,
2014-01-13 06:00:00,33.1,31.6,29.57,West,271,0.0,0.0,94,0.00,,---,0.00,VWS V15.00,2014-01-13 12:00:00,
2014-01-13 06:05:00,33.1,31.6,29.57,West,261,0.0,1.0,94,0.00,,---,0.00,VWS V15.00,2014-01-13 12:05:00,
2014-01-13 06:10:00,33.0,31.2,29.57,WSW,243,0.0,1.0,93,0.00,,---,0.00,VWS V15.00,2014-01-13 12:10:00,
2014-01-13 06:15:00,32.8,31.0,29.57,WSW,243,0.0,0.0,93,0.00,,---,0.00,VWS V15.00,2014-01-13 12:15:00,
2014-01-13 06:20:00,32.4,30.6,29.57,WSW,243,0.0,0.0,93,0.00,,---,0.00,VWS V15.00,2014-01-13 12:20:00,
2014-01-13 06:25:00,32.1,30.3,29.56,WSW,243,0.0,0.0,93,0.00,,---,0.00,VWS V15.00,2014-01-13 12:25:00,
2014-01-13 06:30:00,31.8,30.3,29.56,WSW,243,0.0,0.0,94,0.00,,---,0.00,VWS V15.00,2014-01-13 12:30:00,
2014-01-13 06:35:00,31.7,30.2,29.56,WSW,243,0.0,0.0,94,0.00,,---,0.00,VWS V15.00,2014-01-13 12:35:00,
2014-01-13 06:40:00,31.8,30.5,29.56,WSW,243,0.0,1.0,95,0.00,,---,0.00,VWS V15.00,2014-01-13 12:40:00,
2014-01-13 06:45:00,31.8,30.5,29.56,WSW,243,0.0,0.0,95,0.00,,---,0.00,VWS V15.00,2014-01-13 12:45:00,
2014-01-13 06:50:00,31.5,30.0,29.57,WSW,243,0.0,0.0,94,0.00,,---,0.00,VWS V15.00,2014-01-13 12:50:00,
2014-01-13 06:55:00,31.3,29.8,29.57,WSW,243,0.0,0.0,94,0.00,,---,0.00,VWS V15.00,2014-01-13 12:55:00,
2014-01-13 07:00:00,30.9,29.4,29.57,WSW,243,0.0,0.0,94,0.00,,---,0.00,VWS V15.00,2014-01-13 13:00:00,
2014-01-13 07:05:00,30.7,29.4,29.57,WSW,243,0.0,0.0,95,0.00,,---,0.00,VWS V15.00,2014-01-13 13:05:00,
2014-01-13 07:10:00,30.6,29.3,29.57,WSW,243,0.0,0.0,95,0.00,,---,0.00,VWS V15.00,2014-01-13 13:10:00,
2014-01-13 07:15:00,30.6,29.3,29.57,South,179,0.0,0.0,95,0.00,,---,0.00,VWS V15.00,2014-01-13 13:15:00,
2014-01-13 07:20:00,30.7,29.4,29.57,South,179,0.0,0.0,95,0.00,,---,0.00,VWS V15.00,2014-01-13 13:20:00,
2014-01-13 07:26:00,30.9,29.9,29.57,South,179,0.0,0.0,96,0.00,,---,0.00,VWS V15.00,2014-01-13 13:26:00,
2014-01-13 07:31:00,31.2,30.2,29.57,SW,220,0.0,0.0,96,0.00,,---,0.00,VWS V15.00,2014-01-13 13:31:00,
2014-01-13 07:36:00,31.3,30.3,29.57,West,264,0.0,1.0,96,0.00,,---,0.00,VWS V15.00,2014-01-13 13:36:00,
2014-01-13 07:41:00,31.7,30.7,29.59,West,262,0.0,2.0,96,0.00,,---,0.00,VWS V15.00,2014-01-13 13:41:00,
2014-01-13 07:46:00,31.8,30.5,29.59,WSW,238,0.0,2.0,95,0.00,,---,0.00,VWS V15.00,2014-01-13 13:46:00,
2014-01-13 07:51:00,32.1,30.8,29.59,WSW,255,0.0,2.0,95,0.00,,---,0.00,VWS V15.00,2014-01-13 13:51:00,
2014-01-13 07:56:00,32.2,30.9,29.59,WSW,245,0.0,2.0,95,0.00,,---,0.00,VWS V15.00,2014-01-13 13:56:00,
2014-01-13 08:01:00,32.5,31.2,29.59,WSW,243,0.0,1.0,95,0.00,,---,0.00,VWS V15.00,2014-01-13 14:01:00,
2014-01-13 08:06:00,32.8,31.3,29.58,SSE,161,0.0,1.0,94,0.00,,---,0.00,VWS V15.00,2014-01-13 14:06:00,
2014-01-13 08:11:00,32.8,31.3,29.60,West,259,1.0,1.0,94,0.00,,---,0.00,VWS V15.00,2014-01-13 14:11:00,
2014-01-13 08:16:00,33.1,31.6,29.60,SW,222,1.0,2.0,94,0.00,,---,0.00,VWS V15.00,2014-01-13 14:16:00,
2014-01-13 08:21:00,33.4,31.6,29.60,SW,236,0.0,2.0,93,0.00,,---,0.00,VWS V15.00,2014-01-13 14:21:00,
2014-01-13 08:26:00,33.6,31.8,29.60,WSW,241,1.0,2.0,93,0.00,,---,0.00,VWS V15.00,2014-01-13 14:26:00,
2014-01-13 08:31:00,34.1,32.0,29.60,WSW,237,0.0,1.0,92,0.00,,---,0.00,VWS V15.00,2014-01-13 14:31:00,
2014-01-13 08:36:00,34.4,32.3,29.61,SW,233,1.0,2.0,92,0.00,,---,0.00,VWS V15.00,2014-01-13 14:36:00,
2014-01-13 08:41:00,34.8,32.5,29.61,West,262,2.0,3.0,91,0.00,,---,0.00,VWS V15.00,2014-01-13 14:41:00,
2014-01-13 08:46:00,35.2,32.6,29.61,WSW,250,0.0,1.0,90,0.00,,---,0.00,VWS V15.00,2014-01-13 14:46:00,
2014-01-13 08:51:00,35.5,32.9,29.61,WSW,238,0.0,2.0,90,0.00,,---,0.00,VWS V15.00,2014-01-13 14:51:00,
2014-01-13 08:56:00,35.9,33.0,29.61,SW,232,1.0,3.0,89,0.00,,---,0.00,VWS V15.00,2014-01-13 14:56:00,
2014-01-13 09:02:00,36.1,32.9,29.61,SW,227,0.0,1.0,88,0.00,,---,0.00,VWS V15.00,2014-01-13 15:02:00,
2014-01-13 09:07:00,36.3,33.1,29.61,WSW,240,0.0,4.0,88,0.00,,---,0.00,VWS V15.00,2014-01-13 15:07:00,
2014-01-13 09:12:00,36.5,33.0,29.61,WSW,253,0.0,4.0,87,0.00,,---,0.00,VWS V15.00,2014-01-13 15:12:00,
2014-01-13 09:17:00,36.8,33.3,29.61,West,264,1.0,3.0,87,0.00,,---,0.00,VWS V15.00,2014-01-13 15:17:00,
2014-01-13 09:22:00,37.0,33.2,29.61,West,274,2.0,4.0,86,0.00,,---,0.00,VWS V15.00,2014-01-13 15:22:00,
2014-01-13 09:27:00,37.3,33.5,29.61,West,265,1.0,4.0,86,0.00,,---,0.00,VWS V15.00,2014-01-13 15:27:00,
2014-01-13 09:32:00,37.5,33.4,29.61,WSW,255,1.0,2.0,85,0.00,,---,0.00,VWS V15.00,2014-01-13 15:32:00,
2014-01-13 09:37:00,37.7,33.6,29.61,WSW,252,0.0,2.0,85,0.00,,---,0.00,VWS V15.00,2014-01-13 15:37:00,
2014-01-13 09:42:00,38.0,33.6,29.61,WSW,242,2.0,2.0,84,0.00,,---,0.00,VWS V15.00,2014-01-13 15:42:00,
2014-01-13 09:47:00,38.2,33.8,29.61,West,272,0.0,2.0,84,0.00,,---,0.00,VWS V15.00,2014-01-13 15:47:00,
2014-01-13 09:52:00,38.4,33.7,29.61,West,278,2.0,2.0,83,0.00,,---,0.00,VWS V15.00,2014-01-13 15:52:00,
2014-01-13 09:57:00,38.5,33.8,29.62,WSW,248,1.0,4.0,83,0.00,,---,0.00,VWS V15.00,2014-01-13 15:57:00,
2014-01-13 10:02:00,38.7,33.7,29.62,WSW,255,4.0,4.0,82,0.00,,---,0.00,VWS V15.00,2014-01-13 16:02:00,
2014-01-13 10:07:00,39.1,34.1,29.63,WSW,258,3.0,6.0,82,0.00,,---,0.00,VWS V15.00,2014-01-13 16:07:00,
2014-01-13 10:12:00,39.4,34.1,29.62,WNW,293,4.0,6.0,81,0.00,,---,0.00,VWS V15.00,2014-01-13 16:12:00,
2014-01-13 10:17:00,39.5,34.2,29.62,West,275,1.0,4.0,81,0.00,,---,0.00,VWS V15.00,2014-01-13 16:17:00,
2014-01-13 10:22:00,39.7,34.0,29.62,WSW,254,1.0,4.0,80,0.00,,---,0.00,VWS V15.00,2014-01-13 16:22:00,
2014-01-13 10:27:00,39.6,34.0,29.61,WSW,253,0.0,6.0,80,0.00,,---,0.00,VWS V15.00,2014-01-13 16:27:00,
2014-01-13 10:32:00,39.6,34.0,29.62,WSW,255,3.0,3.0,80,0.00,,---,0.00,VWS V15.00,2014-01-13 16:32:00,
2014-01-13 10:37:00,39.7,34.0,29.62,SSW,213,2.0,7.0,80,0.00,,---,0.00,VWS V15.00,2014-01-13 16:37:00,
2014-01-13 10:42:00,40.0,34.3,29.62,West,262,0.0,9.0,80,0.00,,---,0.00,VWS V15.00,2014-01-13 16:42:00,
2014-01-13 10:47:00,40.3,34.3,29.62,WSW,237,3.0,6.0,79,0.00,,---,0.00,VWS V15.00,2014-01-13 16:47:00,
2014-01-13 10:54:00,40.3,34.0,29.62,West,275,2.0,6.0,78,0.00,,---,0.00,VWS V15.00,2014-01-13 16:54:00,
2014-01-13 10:59:00,40.6,34.0,29.62,West,271,3.0,4.0,77,0.00,,---,0.00,VWS V15.00,2014-01-13 16:59:00,
2014-01-13 11:04:00,40.9,34.3,29.62,West,276,3.0,5.0,77,0.00,,---,0.00,VWS V15.00,2014-01-13 17:04:00,
2014-01-13 11:09:00,41.1,34.5,29.62,WNW,292,1.0,8.0,77,0.00,,---,0.00,VWS V15.00,2014-01-13 17:09:00,
2014-01-13 11:14:00,41.2,34.2,29.62,WNW,290,3.0,8.0,76,0.00,,---,0.00,VWS V15.00,2014-01-13 17:14:00,
2014-01-13 11:19:00,41.4,34.4,29.62,West,266,3.0,5.0,76,0.00,,---,0.00,VWS V15.00,2014-01-13 17:19:00,
2014-01-13 11:24:00,41.5,34.5,29.61,SW,215,1.0,7.0,76,0.00,,---,0.00,VWS V15.00,2014-01-13 17:24:00,
2014-01-13 11:29:00,41.8,34.5,29.61,West,262,4.0,7.0,75,0.00,,---,0.00,VWS V15.00,2014-01-13 17:29:00,
2014-01-13 11:34:00,41.9,34.2,29.61,West,275,5.0,5.0,74,0.00,,---,0.00,VWS V15.00,2014-01-13 17:34:00,
2014-01-13 11:39:00,41.9,34.2,29.61,WSW,253,1.0,7.0,74,0.00,,---,0.00,VWS V15.00,2014-01-13 17:39:00,
2014-01-13 11:44:00,41.9,34.2,29.61,WNW,297,3.0,7.0,74,0.00,,---,0.00,VWS V15.00,2014-01-13 17:44:00,
2014-01-13 11:49:00,42.0,34.3,29.61,WSW,257,6.0,7.0,74,0.00,,---,0.00,VWS V15.00,2014-01-13 17:49:00,
2014-01-13 11:54:00,42.0,34.3,29.62,SW,221,1.0,7.0,74,0.00,,---,0.00,VWS V15.00,2014-01-13 17:54:00,
2014-01-13 11:59:00,42.2,34.5,29.62,NE,45,2.0,7.0,74,0.00,,---,0.00,VWS V15.00,2014-01-13 17:59:00,
2014-01-13 12:04:00,42.2,34.5,29.61,WSW,247,0.0,3.0,74,0.00,,---,0.00,VWS V15.00,2014-01-13 18:04:00,
2014-01-13 12:09:00,42.5,34.5,29.61,SW,227,2.0,12.0,73,0.00,,,0.00,Wunderground v.1.15,2014-01-13 18:09:00,
2014-01-13 12:16:00,42.5,34.8,29.61,SW,235,2.0,12.0,74,0.00,,,0.00,Wunderground v.1.15,2014-01-13 18:16:00,
2014-01-13 12:22:00,42.4,34.7,29.61,SW,220,2.0,12.0,74,0.00,,,0.00,Wunderground v.1.15,2014-01-13 18:22:00,
2014-01-13 12:28:00,42.4,34.7,29.62,SW,233,2.0,12.0,74,0.00,,,0.00,Wunderground v.1.15,2014-01-13 18:28:00,
2014-01-13 12:33:00,42.1,34.4,29.62,WSW,252,3.0,12.0,74,0.00,,,0.00,Wunderground v.1.15,2014-01-13 18:33:00,
2014-01-13 12:40:00,42.0,34.3,29.62,SW,229,3.0,12.0,74,0.00,,,0.00,Wunderground v.1.15,2014-01-13 18:40:00,
2014-01-13 12:52:00,42.0,34.3,29.62,WSW,256,6.0,6.0,74,0.00,,---,0.00,VWS V15.00,2014-01-13 18:52:00,
2014-01-13 13:00:00,42.0,34.0,29.62,SW,216,3.0,3.0,73,0.00,,,0.00,Wunderground v.1.15,2014-01-13 19:00:00,
2014-01-13 13:05:00,42.0,34.3,29.62,SW,227,0.0,6.0,74,0.00,,---,0.00,VWS V15.00,2014-01-13 19:05:00,
2014-01-13 13:12:00,41.7,33.7,29.62,West,273,5.0,5.0,73,0.00,,,0.00,Wunderground v.1.15,2014-01-13 19:12:00,
2014-01-13 13:17:00,41.7,34.0,29.62,WNW,283,6.0,9.0,74,0.00,,---,0.00,VWS V15.00,2014-01-13 19:17:00,
2014-01-13 13:22:00,41.6,33.9,29.62,SW,221,4.0,9.0,74,0.00,,---,0.00,VWS V15.00,2014-01-13 19:22:00,
2014-01-13 13:27:00,41.5,33.8,29.62,West,266,3.0,11.0,74,0.00,,---,0.00,VWS V15.00,2014-01-13 19:27:00,
2014-01-13 13:32:00,41.4,33.8,29.62,WNW,298,2.0,8.0,74,0.00,,---,0.00,VWS V15.00,2014-01-13 19:32:00,
2014-01-13 13:37:00,41.4,34.1,29.63,WNW,288,7.0,8.0,75,0.00,,---,0.00,VWS V15.00,2014-01-13 19:37:00,
2014-01-13 13:42:00,41.1,33.8,29.63,WSW,251,3.0,11.0,75,0.00,,---,0.00,VWS V15.00,2014-01-13 19:42:00,
2014-01-13 13:47:00,41.0,33.7,29.63,WSW,257,4.0,11.0,75,0.00,,---,0.00,VWS V15.00,2014-01-13 19:47:00,
2014-01-13 13:52:00,40.7,33.7,29.63,West,271,5.0,11.0,76,0.00,,---,0.00,VWS V15.00,2014-01-13 19:52:00,
2014-01-13 13:57:00,40.6,33.3,29.64,West,278,3.0,13.0,75,0.00,,---,0.00,VWS V15.00,2014-01-13 19:57:00,
2014-01-13 14:02:00,40.3,33.0,29.64,WSW,252,4.0,10.0,75,0.00,,---,0.00,VWS V15.00,2014-01-13 20:02:00,
2014-01-13 14:07:00,40.3,33.0,29.64,West,265,4.0,12.0,75,0.00,,---,0.00,VWS V15.00,2014-01-13 20:07:00,
2014-01-13 14:12:00,40.2,33.6,29.64,West,259,5.0,12.0,77,0.00,,---,0.00,VWS V15.00,2014-01-13 20:12:00,
2014-01-13 14:17:00,40.2,33.6,29.65,SW,233,10.0,13.0,77,0.00,,---,0.00,VWS V15.00,2014-01-13 20:17:00,
2014-01-13 14:22:00,39.7,33.1,29.64,WNW,290,6.0,13.0,77,0.00,,---,0.00,VWS V15.00,2014-01-13 20:22:00,
2014-01-13 14:27:00,39.2,32.3,29.65,West,273,6.0,13.0,76,0.00,,---,0.00,VWS V15.00,2014-01-13 20:27:00,
2014-01-13 14:32:00,38.7,31.8,29.65,West,273,5.0,9.0,76,0.00,,---,0.00,VWS V15.00,2014-01-13 20:32:00,
2014-01-13 14:37:00,38.4,31.8,29.65,West,277,6.0,12.0,77,0.00,,---,0.00,VWS V15.00,2014-01-13 20:37:00,
2014-01-13 14:42:00,38.1,31.9,29.66,WSW,254,3.0,12.0,78,0.00,,---,0.00,VWS V15.00,2014-01-13 20:42:00,
2014-01-13 14:47:00,38.1,31.9,29.66,WNW,295,4.0,9.0,78,0.00,,---,0.00,VWS V15.00,2014-01-13 20:47:00,
2014-01-13 14:52:00,37.9,32.0,29.67,WSW,245,4.0,9.0,79,0.00,,---,0.00,VWS V15.00,2014-01-13 20:52:00,
2014-01-13 14:57:00,37.8,31.9,29.67,WSW,248,1.0,10.0,79,0.00,,---,0.00,VWS V15.00,2014-01-13 20:57:00,
2014-01-13 15:02:00,37.5,31.9,29.67,WSW,241,5.0,10.0,80,0.00,,---,0.00,VWS V15.00,2014-01-13 21:02:00,
2014-01-13 15:07:00,37.3,31.7,29.67,West,267,3.0,11.0,80,0.00,,---,0.00,VWS V15.00,2014-01-13 21:07:00,
2014-01-13 15:10:00,37.1,31.5,29.68,SSW,198,5.0,11.0,80,0.00,,---,0.00,VWS V15.00,2014-01-13 21:10:00,
2014-01-13 15:15:00,36.6,31.0,29.68,WSW,255,5.0,11.0,80,0.00,,---,0.00,VWS V15.00,2014-01-13 21:15:00,
2014-01-13 15:20:00,36.3,30.7,29.68,WNW,283,2.0,12.0,80,0.00,,---,0.00,VWS V15.00,2014-01-13 21:20:00,
2014-01-13 15:25:00,35.9,30.6,29.69,West,279,4.0,12.0,81,0.00,,---,0.00,VWS V15.00,2014-01-13 21:25:00,
2014-01-13 15:30:00,35.8,30.5,29.69,WSW,245,9.0,12.0,81,0.00,,---,0.00,VWS V15.00,2014-01-13 21:30:00,
2014-01-13 15:35:00,35.6,30.7,29.70,West,274,5.0,7.0,82,0.00,,---,0.00,VWS V15.00,2014-01-13 21:35:00,
2014-01-13 15:40:00,35.3,30.4,29.70,West,259,7.0,12.0,82,0.00,,---,0.00,VWS V15.00,2014-01-13 21:40:00,
2014-01-13 15:45:00,35.1,30.2,29.70,WNW,283,4.0,12.0,82,0.00,,---,0.00,VWS V15.00,2014-01-13 21:45:00,
2014-01-13 15:50:00,35.1,30.2,29.71,NW,304,1.0,8.0,82,0.00,,---,0.00,VWS V15.00,2014-01-13 21:50:00,
2014-01-13 15:55:00,35.1,30.2,29.71,WSW,245,2.0,8.0,82,0.00,,---,0.00,VWS V15.00,2014-01-13 21:55:00,
2014-01-13 16:00:00,34.9,30.0,29.71,WSW,255,3.0,4.0,82,0.00,,---,0.00,VWS V15.00,2014-01-13 22:00:00,
2014-01-13 16:05:00,34.7,29.8,29.72,West,270,1.0,10.0,82,0.00,,---,0.00,VWS V15.00,2014-01-13 22:05:00,
2014-01-13 16:10:00,34.5,29.9,29.72,West,269,2.0,10.0,83,0.00,,---,0.00,VWS V15.00,2014-01-13 22:10:00,
2014-01-13 16:15:00,34.4,29.8,29.72,West,259,2.0,4.0,83,0.00,,---,0.00,VWS V15.00,2014-01-13 22:15:00,
2014-01-13 16:21:00,34.3,29.7,29.72,WNW,285,0.0,9.0,83,0.00,,---,0.00,VWS V15.00,2014-01-13 22:21:00,
2014-01-13 16:26:00,34.1,29.8,29.73,West,269,1.0,9.0,84,0.00,,---,0.00,VWS V15.00,2014-01-13 22:26:00,
2014-01-13 16:31:00,33.9,29.3,29.73,WNW,284,3.0,5.0,83,0.00,,---,0.00,VWS V15.00,2014-01-13 22:31:00,
2014-01-13 16:36:00,33.7,29.4,29.73,West,281,1.0,5.0,84,0.00,,---,0.00,VWS V15.00,2014-01-13 22:36:00,
2014-01-13 16:41:00,33.5,29.2,29.73,SW,218,2.0,6.0,84,0.00,,---,0.00,VWS V15.00,2014-01-13 22:41:00,
2014-01-13 16:46:00,33.4,29.1,29.73,West,259,1.0,4.0,84,0.00,,---,0.00,VWS V15.00,2014-01-13 22:46:00,
2014-01-13 16:51:00,33.1,28.8,29.73,West,269,2.0,4.0,84,0.00,,---,0.00,VWS V15.00,2014-01-13 22:51:00,
2014-01-13 16:56:00,33.0,28.4,29.73,West,278,2.0,4.0,83,0.00,,---,0.00,VWS V15.00,2014-01-13 22:56:00,
2014-01-13 17:02:00,32.8,28.2,29.73,SW,231,1.0,2.0,83,0.00,,---,0.00,VWS V15.00,2014-01-13 23:02:00,
2014-01-13 17:07:00,32.7,28.1,29.73,WSW,242,2.0,4.0,83,0.00,,---,0.00,VWS V15.00,2014-01-13 23:07:00,
2014-01-13 17:12:00,32.6,28.3,29.73,West,280,0.0,4.0,84,0.00,,---,0.00,VWS V15.00,2014-01-13 23:12:00,
2014-01-13 17:17:00,32.3,28.0,29.74,SW,236,3.0,6.0,84,0.00,,---,0.00,VWS V15.00,2014-01-13 23:17:00,
2014-01-13 17:22:00,32.2,27.9,29.74,WSW,249,1.0,6.0,84,0.00,,---,0.00,VWS V15.00,2014-01-13 23:22:00,
2014-01-13 17:27:00,32.0,27.7,29.74,West,272,2.0,6.0,84,0.00,,---,0.00,VWS V15.00,2014-01-13 23:27:00,
2014-01-13 17:32:00,32.0,27.7,29.74,WSW,249,1.0,3.0,84,0.00,,---,0.00,VWS V15.00,2014-01-13 23:32:00,
2014-01-13 17:37:00,31.8,27.5,29.74,West,274,0.0,3.0,84,0.00,,---,0.00,VWS V15.00,2014-01-13 23:37:00,
2014-01-13 17:42:00,31.7,27.7,29.75,WSW,238,1.0,3.0,85,0.00,,---,0.00,VWS V15.00,2014-01-13 23:42:00,
2014-01-13 17:47:00,31.5,27.5,29.75,West,260,1.0,5.0,85,0.00,,---,0.00,VWS V15.00,2014-01-13 23:47:00,
2014-01-13 17:52:00,31.5,27.5,29.75,SW,232,1.0,5.0,85,0.00,,---,0.00,VWS V15.00,2014-01-13 23:52:00,
2014-01-13 17:57:00,31.5,27.5,29.75,West,273,1.0,5.0,85,0.00,,---,0.00,VWS V15.00,2014-01-13 23:57:00,
2014-01-13 18:02:00,31.3,27.3,29.75,WSW,250,0.0,3.0,85,0.00,,---,0.00,VWS V15.00,2014-01-14 00:02:00,
2014-01-13 18:07:00,31.2,27.2,29.75,SW,227,2.0,5.0,85,0.00,,---,0.00,VWS V15.00,2014-01-14 00:07:00,
2014-01-13 18:12:00,31.0,27.0,29.76,WSW,237,1.0,2.0,85,0.00,,---,0.00,VWS V15.00,2014-01-14 00:12:00,
2014-01-13 18:17:00,30.9,26.9,29.76,West,261,1.0,6.0,85,0.00,,---,0.00,VWS V15.00,2014-01-14 00:17:00,
2014-01-13 18:23:00,30.8,26.8,29.76,WNW,297,0.0,5.0,85,0.00,,---,0.00,VWS V15.00,2014-01-14 00:23:00,
2014-01-13 18:28:00,30.8,26.5,29.77,West,274,1.0,5.0,84,0.00,,---,0.00,VWS V15.00,2014-01-14 00:28:00,
2014-01-13 18:33:00,30.7,26.5,29.77,SW,224,0.0,3.0,84,0.00,,---,0.00,VWS V15.00,2014-01-14 00:33:00,
2014-01-13 18:38:00,30.6,26.4,29.77,WNW,300,0.0,4.0,84,0.00,,---,0.00,VWS V15.00,2014-01-14 00:38:00,
2014-01-13 18:43:00,30.5,26.0,29.77,West,281,1.0,4.0,83,0.00,,---,0.00,VWS V15.00,2014-01-14 00:43:00,
2014-01-13 18:48:00,30.4,25.9,29.77,West,266,0.0,4.0,83,0.00,,---,0.00,VWS V15.00,2014-01-14 00:48:00,
2014-01-13 18:53:00,30.3,25.5,29.78,West,266,1.0,3.0,82,0.00,,---,0.00,VWS V15.00,2014-01-14 00:53:00,
2014-01-13 18:58:00,30.2,25.4,29.78,SW,229,1.0,3.0,82,0.00,,---,0.00,VWS V15.00,2014-01-14 00:58:00,
2014-01-13 19:03:00,30.2,25.4,29.78,West,271,1.0,5.0,82,0.00,,---,0.00,VWS V15.00,2014-01-14 01:03:00,
2014-01-13 19:08:00,30.0,25.2,29.78,West,270,1.0,5.0,82,0.00,,---,0.00,VWS V15.00,2014-01-14 01:08:00,
2014-01-13 19:13:00,30.0,25.2,29.78,SW,230,4.0,4.0,82,0.00,,---,0.00,VWS V15.00,2014-01-14 01:13:00,
2014-01-13 19:18:00,29.8,25.3,29.78,WNW,283,3.0,4.0,83,0.00,,---,0.00,VWS V15.00,2014-01-14 01:18:00,
2014-01-13 19:23:00,29.7,25.2,29.78,WSW,248,2.0,3.0,83,0.00,,---,0.00,VWS V15.00,2014-01-14 01:23:00,
2014-01-13 19:28:00,29.5,25.0,29.78,West,262,1.0,4.0,83,0.00,,---,0.00,VWS V15.00,2014-01-14 01:28:00,
2014-01-13 19:34:00,29.5,25.0,29.79,West,264,2.0,4.0,83,0.00,,---,0.00,VWS V15.00,2014-01-14 01:34:00,
2014-01-13 19:39:00,29.4,24.9,29.78,WSW,238,1.0,5.0,83,0.00,,---,0.00,VWS V15.00,2014-01-14 01:39:00,
2014-01-13 19:44:00,29.3,24.8,29.78,SW,230,0.0,3.0,83,0.00,,---,0.00,VWS V15.00,2014-01-14 01:44:00,
2014-01-13 19:49:00,29.0,24.8,29.78,WSW,242,0.0,3.0,84,0.00,,---,0.00,VWS V15.00,2014-01-14 01:49:00,
2014-01-13 19:54:00,29.0,24.8,29.78,WSW,255,0.0,3.0,84,0.00,,---,0.00,VWS V15.00,2014-01-14 01:54:00,
2014-01-13 19:59:00,28.8,24.9,29.78,WSW,241,1.0,3.0,85,0.00,,---,0.00,VWS V15.00,2014-01-14 01:59:00,
2014-01-13 20:04:00,28.8,24.9,29.78,WSW,241,3.0,6.0,85,0.00,,---,0.00,VWS V15.00,2014-01-14 02:04:00,
2014-01-13 20:09:00,28.7,24.8,29.78,WSW,251,2.0,6.0,85,0.00,,---,0.00,VWS V15.00,2014-01-14 02:09:00,
2014-01-13 20:14:00,28.7,24.8,29.78,SW,233,2.0,3.0,85,0.00,,---,0.00,VWS V15.00,2014-01-14 02:14:00,
2014-01-13 20:19:00,28.6,24.7,29.78,SW,234,2.0,3.0,85,0.00,,---,0.00,VWS V15.00,2014-01-14 02:19:00,
2014-01-13 20:24:00,28.5,24.9,29.78,WSW,257,1.0,3.0,86,0.00,,---,0.00,VWS V15.00,2014-01-14 02:24:00,
2014-01-13 20:29:00,28.4,24.8,29.78,WSW,250,1.0,3.0,86,0.00,,---,0.00,VWS V15.00,2014-01-14 02:29:00,
2014-01-13 20:34:00,28.4,24.8,29.78,West,262,1.0,3.0,86,0.00,,---,0.00,VWS V15.00,2014-01-14 02:34:00,
2014-01-13 20:39:00,28.3,24.7,29.78,West,260,1.0,3.0,86,0.00,,---,0.00,VWS V15.00,2014-01-14 02:39:00,
2014-01-13 20:44:00,28.2,24.6,29.78,West,260,3.0,3.0,86,0.00,,---,0.00,VWS V15.00,2014-01-14 02:44:00,
2014-01-13 20:49:00,28.2,24.6,29.78,WSW,243,2.0,3.0,86,0.00,,---,0.00,VWS V15.00,2014-01-14 02:49:00,
2014-01-13 20:54:00,28.1,24.7,29.78,WSW,258,1.0,3.0,87,0.00,,---,0.00,VWS V15.00,2014-01-14 02:54:00,
2014-01-13 20:59:00,28.1,24.7,29.78,WSW,238,1.0,3.0,87,0.00,,---,0.00,VWS V15.00,2014-01-14 02:59:00,
2014-01-13 21:05:00,28.0,24.6,29.78,SW,232,1.0,4.0,87,0.00,,---,0.00,VWS V15.00,2014-01-14 03:05:00,
2014-01-13 21:10:00,27.8,24.4,29.78,WSW,249,1.0,4.0,87,0.00,,---,0.00,VWS V15.00,2014-01-14 03:10:00,
2014-01-13 21:15:00,27.7,24.6,29.78,WSW,246,2.0,3.0,88,0.00,,---,0.00,VWS V15.00,2014-01-14 03:15:00,
2014-01-13 21:20:00,27.6,24.5,29.78,SW,233,1.0,3.0,88,0.00,,---,0.00,VWS V15.00,2014-01-14 03:20:00,
2014-01-13 21:25:00,27.6,24.5,29.79,WSW,248,0.0,2.0,88,0.00,,---,0.00,VWS V15.00,2014-01-14 03:25:00,
2014-01-13 21:30:00,27.5,24.4,29.79,WSW,251,1.0,2.0,88,0.00,,---,0.00,VWS V15.00,2014-01-14 03:30:00,
2014-01-13 21:35:00,27.4,24.6,29.79,WSW,248,1.0,2.0,89,0.00,,---,0.00,VWS V15.00,2014-01-14 03:35:00,
2014-01-13 21:40:00,27.4,24.6,29.79,WSW,239,1.0,2.0,89,0.00,,---,0.00,VWS V15.00,2014-01-14 03:40:00,
2014-01-13 21:45:00,27.5,24.7,29.79,WSW,248,1.0,2.0,89,0.00,,---,0.00,VWS V15.00,2014-01-14 03:45:00,
2014-01-13 21:50:00,27.5,24.7,29.79,WSW,255,0.0,1.0,89,0.00,,---,0.00,VWS V15.00,2014-01-14 03:50:00,
2014-01-13 21:55:00,27.4,24.6,29.80,WSW,248,1.0,1.0,89,0.00,,---,0.00,VWS V15.00,2014-01-14 03:55:00,
2014-01-13 22:00:00,27.3,24.5,29.80,West,269,1.0,1.0,89,0.00,,---,0.00,VWS V15.00,2014-01-14 04:00:00,
2014-01-13 22:06:00,27.2,24.4,29.79,West,260,1.0,1.0,89,0.00,,---,0.00,VWS V15.00,2014-01-14 04:06:00,
2014-01-13 22:11:00,27.1,24.6,29.79,WSW,249,0.0,1.0,90,0.00,,---,0.00,VWS V15.00,2014-01-14 04:11:00,
2014-01-13 22:15:00,27.0,24.2,29.80,West,268,1.0,1.0,89,0.00,,---,0.00,VWS V15.00,2014-01-14 04:15:00,
2014-01-13 22:21:00,26.9,24.4,29.80,West,259,0.0,1.0,90,0.00,,---,0.00,VWS V15.00,2014-01-14 04:21:00,
2014-01-13 22:25:00,26.9,24.4,29.80,WSW,255,1.0,1.0,90,0.00,,---,0.00,VWS V15.00,2014-01-14 04:25:00,
2014-01-13 22:30:00,27.0,24.5,29.79,WSW,240,1.0,1.0,90,0.00,,---,0.00,VWS V15.00,2014-01-14 04:30:00,
2014-01-13 22:35:00,27.0,24.5,29.79,West,266,1.0,1.0,90,0.00,,---,0.00,VWS V15.00,2014-01-14 04:35:00,
2014-01-13 22:41:00,27.0,24.5,29.79,WSW,246,0.0,0.0,90,0.00,,---,0.00,VWS V15.00,2014-01-14 04:41:00,
2014-01-13 22:46:00,27.1,24.6,29.79,WSW,247,0.0,1.0,90,0.00,,---,0.00,VWS V15.00,2014-01-14 04:46:00,
2014-01-13 22:51:00,27.0,24.5,29.79,WSW,246,0.0,0.0,90,0.00,,---,0.00,VWS V15.00,2014-01-14 04:51:00,
2014-01-13 22:56:00,26.7,24.2,29.79,WSW,247,0.0,0.0,90,0.00,,---,0.00,VWS V15.00,2014-01-14 04:56:00,
2014-01-13 23:01:00,26.5,24.0,29.79,WSW,238,0.0,0.0,90,0.00,,---,0.00,VWS V15.00,2014-01-14 05:01:00,
2014-01-13 23:02:00,26.4,23.9,29.79,SW,231,0.0,0.0,90,0.00,,---,0.00,VWS V15.00,2014-01-14 05:02:00,
2014-01-13 23:07:00,26.3,24.0,29.79,SW,231,0.0,0.0,91,0.00,,---,0.00,VWS V15.00,2014-01-14 05:07:00,
2014-01-13 23:12:00,26.3,24.0,29.79,SW,231,0.0,1.0,91,0.00,,---,0.00,VWS V15.00,2014-01-14 05:12:00,
2014-01-13 23:17:00,26.2,23.9,29.79,SW,232,0.0,1.0,91,0.00,,---,0.00,VWS V15.00,2014-01-14 05:17:00,
2014-01-13 23:22:00,26.1,23.8,29.79,WSW,243,0.0,1.0,91,0.00,,---,0.00,VWS V15.00,2014-01-14 05:22:00,
2014-01-13 23:28:00,26.2,24.2,29.79,WSW,243,0.0,1.0,92,0.00,,---,0.00,VWS V15.00,2014-01-14 05:28:00,
2014-01-13 23:33:00,26.4,24.4,29.78,WSW,246,1.0,1.0,92,0.00,,---,0.00,VWS V15.00,2014-01-14 05:33:00,
2014-01-13 23:38:00,26.6,24.6,29.78,SW,229,0.0,1.0,92,0.00,,---,0.00,VWS V15.00,2014-01-14 05:38:00,
2014-01-13 23:43:00,26.9,24.9,29.78,WSW,239,0.0,1.0,92,0.00,,---,0.00,VWS V15.00,2014-01-14 05:43:00,
2014-01-13 23:48:00,27.0,24.7,29.78,WSW,240,0.0,2.0,91,0.00,,---,0.00,VWS V15.00,2014-01-14 05:48:00,
2014-01-13 23:54:00,27.3,25.0,29.78,SW,234,1.0,1.0,91,0.00,,,0.00,Wunderground v.1.15,2014-01-14 05:54:00,